Back to catalog

STARLINK-6328

AliveCommunicationsVLEO
NORAD 56523·PAYLOAD·🇺🇸 United States

Launched May 14, 2023 from Cape Canaveral Space Force Station

Loading…

Next Passes (next 24 hours)

TLE

FreshSource: CelesTrak SupGP

Epoch: Sep 14, 2026, 20:46 UTC

1 56523C 23065W   26257.86576389  .00026780  00000+0  97003-3 0  2572
2 56523  43.0017 224.5301 0001697 261.2479 213.9185 15.27562362    18

Track STARLINK-6328 in real time with AllMySat

Download on the App Store